Flag for Brunei Weather past 2 weeks in Bandar Seri Begawan, Brunei

Now
88 °F

Broken clouds.


Feels Like: 102 °F
Forecast: 78 / 89 °F
Wind: 5 mph from Northwest

Location: Brunei Airport

Current Time: Apr 25, 2015 at 12:19:38 PM

Latest Report: Apr 25, 2015 at 11:30 AM


Visibility: N/A

Pressure: 29.83 "Hg

Humidity: 75%

Dew point: 79 °F

Location of Bandar Seri BegawanLocation

Historic Weather in Bandar Seri Begawan — Graph

°F

Bandar Seri Begawan temperature yesterday

Maximum temperature yesterday: 90 °F (at 10:00 AM)
Minimum temperature yesterday: 79 °F (at 1:30 AM)
Average temperature yesterday: 84 °F

Past Weeks' High & Low Weather Summary

 TemperatureHumidityPressure
High93 °F (Apr 18, 12:30 PM)100% (Apr 11, 3:30 AM)29.95 "Hg (Apr 11, 3:30 AM)
Low75 °F (Apr 19, 4:30 AM)53% (Apr 20, 1:00 PM)29.71 "Hg (Apr 18, 3:30 PM)
Average83 °F83%29.84 "Hg
* Reported Apr 10 11:00 AM — Apr 25 11:00 AM, Bandar Seri Begawan, Weather by CustomWeather, © 2015

Note: Actual official high and low records may vary slightly from our data, if they occured in-between our weather recording intervals... More about our weather records

Advertising

Bandar Seri Begawan weather history for previous 24 hours

 ConditionsComfort  
Time TempWeatherWind HumidityBarometerVisibility
11:00 AM
Sat, Apr 25
84 °FBroken clouds.8 mph84%29.86 "HgN/A
10:30 AM86 °FBroken clouds.7 mph75%29.86 "HgN/A
10:00 AM88 °FBroken clouds.2 mph75%29.86 "HgN/A
9:30 AM88 °FBroken clouds.2 mph75%29.86 "HgN/A
9:00 AM84 °FBroken clouds.3 mph79%29.86 "HgN/A
8:30 AM82 °FPartly sunny.6 mph84%29.86 "HgN/A
8:00 AM79 °FThunderstorms. Broken clouds.5 mph94%29.86 "HgN/A
7:30 AM79 °FThunderstorms. Broken clouds.5 mph94%29.86 "HgN/A
7:00 AM77 °FBroken clouds.3 mph100%29.83 "HgN/A
6:30 AM77 °FBroken clouds.2 mph100%29.83 "HgN/A
6:00 AM77 °FThunderstorms. Passing clouds.3 mph100%29.83 "HgN/A
5:30 AM79 °FThunderstorms. Passing clouds.3 mph94%29.83 "HgN/A
5:00 AM79 °FThunderstorms. Partly cloudy.3 mph94%29.80 "HgN/A
4:30 AM79 °FThunderstorms. Passing clouds.3 mph94%29.80 "HgN/A
4:00 AM79 °FPartly cloudy.3 mph94%29.80 "HgN/A
3:30 AM79 °FPartly cloudy.5 mph94%29.80 "HgN/A
3:00 AM79 °FPartly cloudy.2 mph94%29.83 "HgN/A
2:30 AM79 °FPassing clouds.3 mph94%29.83 "HgN/A
2:00 AM79 °FPassing clouds.3 mph94%29.83 "HgN/A
1:30 AM79 °FPassing clouds.3 mph94%29.83 "HgN/A
1:00 AM81 °FPassing clouds.3 mph89%29.83 "HgN/A
12:30 AM81 °FPassing clouds.3 mph89%29.83 "HgN/A
12:00 AM81 °FPassing clouds.3 mph94%29.86 "HgN/A
11:30 PM
Fri, Apr 24
81 °FPassing clouds.1 mph94%29.86 "HgN/A
11:00 PM82 °FPassing clouds.2 mph89%29.86 "HgN/A
10:30 PM82 °FPassing clouds.2 mph89%29.83 "HgN/A
10:00 PM82 °FPassing clouds.1 mph89%29.83 "HgN/A
9:30 PM82 °FPassing clouds.3 mph89%29.83 "HgN/A
9:00 PM82 °FPassing clouds.3 mph89%29.83 "HgN/A
8:30 PM82 °FPassing clouds.5 mph84%29.80 "HgN/A
8:00 PM84 °FPartly cloudy.8 mph84%29.80 "HgN/A
7:30 PM84 °FPartly cloudy.6 mph84%29.80 "HgN/A
7:00 PM84 °FPassing clouds.7 mph84%29.80 "HgN/A
6:30 PM86 °FPassing clouds.9 mph75%29.80 "HgN/A
6:00 PM86 °FBroken clouds.8 mph79%29.77 "HgN/A
5:30 PM86 °FBroken clouds.8 mph79%29.77 "HgN/A
5:00 PM88 °FBroken clouds.9 mph70%29.77 "HgN/A
4:30 PM88 °FBroken clouds.9 mph70%29.77 "HgN/A
4:00 PM90 °FBroken clouds.10 mph63%29.74 "HgN/A
3:30 PM90 °FPartly sunny.10 mph67%29.74 "HgN/A
3:00 PM90 °FPartly sunny.10 mph67%29.77 "HgN/A
2:30 PM88 °FPartly sunny.12 mph70%29.77 "HgN/A
2:00 PM88 °FPartly sunny.9 mph70%29.80 "HgN/A
1:30 PM90 °FThunderstorms. Partly sunny.9 mph63%29.80 "HgN/A
1:00 PM88 °FThunderstorms. Broken clouds.7 mph75%29.83 "Hg5 mi
12:30 PM90 °FThunderstorms. Broken clouds.6 mph67%29.83 "Hg3 mi
12:00 PM86 °FSprinkles. Broken clouds.8 mph75%29.86 "Hg4 mi
Weather by CustomWeather, © 2015

See weather overviewHow to use our weather pages